Tracking 20066 objects as of 7-Dec-2019
HD Live streaming from Space Station
objects crossing your sky now

PROMETHEUS 1-8


PROMETHEUS 1-8 is no longer on orbit
PROMETHEUS 1-8 is classified as:


NORAD ID: 39401
Int'l Code: 2013-064X
Perigee: N/A
Apogee: N/A
Inclination: N/A
Period: N/A
Semi major axis: N/A
RCS: N/A
Launch date: November 20, 2013
Source: United States (US)
Launch site: WALLOPS ISLAND (WLPIS)
Decay date: 2015-12-01
aabbcc
Your satellite tracking list
Your tracking list is empty




NASA's NSSDC Master Catalog

Two Line Element Set (TLE):
1 39401U 13064X   15334.79071239 +.05902849 +72499-5 +13398-2 0  9994
2 39401 040.4931 115.7412 0007924 342.2991 019.1016 16.28972424113292
Source of the keplerian elements: AFSPC